| time (UTC) | temp F | wind direction | speed MPH | gust MPH | rain 1hr in | rain 24hr in | rain mn in | humidity % | barometer mb |
| 20260509045020 | 90 | 45 | 0.0 | 0.0 | 0.00 | 0.29 | 0.03 | 73 | 1004.3 |
| 20260509044521 | 90 | 45 | 0.0 | 0.0 | 0.00 | 0.29 | 0.03 | 75 | 1004.3 |
| 20260509044021 | 91 | 46 | 0.0 | 0.0 | 0.00 | 0.29 | 0.03 | 73 | 1004.3 |
| 20260509043521 | 90 | 90 | 0.0 | 0.0 | 0.00 | 0.29 | 0.03 | 75 | 1004.3 |
| 20260509043020 | 89 | 90 | 0.0 | 0.0 | 0.00 | 0.29 | 0.03 | 74 | 1004.3 |
| 20260509042521 | 90 | 68 | 0.0 | 0.0 | 0.00 | 0.29 | 0.03 | 73 | 1004.3 |
| 20260509042020 | 91 | 68 | 0.0 | 0.0 | 0.00 | 0.29 | 0.03 | 72 | 1004.2 |
| 20260509041521 | 91 | 68 | 0.0 | 0.0 | 0.00 | 0.29 | 0.03 | 73 | 1004.1 |
| 20260509041020 | 89 | 58 | 0.0 | 0.0 | 0.00 | 0.29 | 0.03 | 77 | 1004.1 |
| 20260509040521 | 89 | 45 | 0.0 | 0.0 | 0.00 | 0.29 | 0.03 | 80 | 1004.0 |
| 20260509040020 | 88 | 45 | 0.0 | 0.0 | 0.00 | 0.29 | 0.03 | 81 | 1004.0 |
| 20260509035521 | 87 | 45 | 0.0 | 0.0 | 0.00 | 0.29 | 0.03 | 84 | 1003.8 |
| 20260509034521 | 86 | 45 | 0.0 | 0.0 | 0.00 | 0.29 | 0.03 | 84 | 1003.8 |
| 20260509034021 | 86 | 45 | 0.0 | 0.0 | 0.00 | 0.29 | 0.03 | 88 | 1003.7 |
| 20260509033521 | 85 | 45 | 0.0 | 0.0 | 0.00 | 0.29 | 0.03 | 90 | 1003.7 |
| 20260509033021 | 84 | 45 | 0.0 | 0.0 | 0.00 | 0.29 | 0.03 | 90 | 1003.4 |
| 20260509032521 | 84 | 45 | 0.0 | 0.0 | 0.00 | 0.29 | 0.03 | 92 | 1003.4 |
| 20260509031520 | 83 | 45 | 0.0 | 0.0 | 0.00 | 0.29 | 0.03 | 94 | 1003.3 |
| 20260509031020 | 82 | 45 | 0.0 | 0.0 | 0.00 | 0.29 | 0.03 | 94 | 1003.3 |
| 20260509030521 | 82 | 22 | 0.0 | 0.0 | 0.00 | 0.29 | 0.03 | 95 | 1003.3 |
| 20260509030021 | 82 | 0 | 0.0 | 0.0 | 0.00 | 0.29 | 0.03 | 96 | 1003.3 |
| 20260509025521 | 81 | 0 | 0.0 | 0.0 | 0.00 | 0.29 | 0.03 | 96 | 1003.2 |
| 20260509025021 | 82 | 315 | 0.0 | 0.0 | 0.00 | 0.29 | 0.03 | 97 | 1003.2 |
| 20260509024521 | 81 | 315 | 0.0 | 0.0 | 0.00 | 0.29 | 0.03 | 98 | 1003.2 |
| 20260509024020 | 81 | 315 | 0.0 | 0.0 | 0.00 | 0.29 | 0.03 | 98 | 1003.2 |
| 20260509023521 | 81 | 315 | 0.0 | 0.0 | 0.00 | 0.29 | 0.03 | 99 | 1003.2 |
| 20260509023021 | 81 | 315 | 0.0 | 0.0 | 0.00 | 0.29 | 0.03 | 97 | 1003.2 |
| 20260509022020 | 80 | 315 | 0.0 | 0.0 | 0.00 | 0.29 | 0.03 | 99 | 1003.0 |
| 20260509021521 | 80 | 315 | 0.0 | 0.0 | 0.00 | 0.29 | 0.03 | 99 | 1002.9 |
| 20260509021020 | 79 | 315 | 0.0 | 0.0 | 0.00 | 0.29 | 0.03 | 99 | 1002.9 |
| 20260509020521 | 79 | 315 | 0.0 | 0.0 | 0.00 | 0.29 | 0.03 | 99 | 1002.6 |
| 20260509020022 | 79 | 315 | 0.0 | 0.0 | 0.00 | 0.29 | 0.03 | 99 | 1002.6 |
| 20260509015521 | 78 | 315 | 0.0 | 0.0 | 0.00 | 0.29 | 0.03 | 99 | 1002.5 |
| 20260509015020 | 78 | 292 | 0.0 | 0.0 | 0.00 | 0.29 | 0.03 | 99 | 1002.5 |
| 20260509013520 | 77 | 292 | 0.0 | 0.0 | 0.00 | 0.29 | 0.03 | 99 | 1002.3 |
| 20260509013021 | 77 | 302 | 0.0 | 0.0 | 0.01 | 0.29 | 0.03 | 99 | 1002.2 |
| 20260509012521 | 77 | 292 | 0.0 | 0.0 | 0.01 | 0.29 | 0.03 | 99 | 1002.2 |
| 20260509012021 | 77 | 292 | 0.0 | 0.0 | 0.01 | 0.29 | 0.03 | 99 | 1002.2 |
| 20260509011520 | 76 | 292 | 0.0 | 0.0 | 0.01 | 0.29 | 0.03 | 99 | 1001.9 |
| 20260509011020 | 76 | 292 | 0.0 | 0.0 | 0.01 | 0.29 | 0.03 | 99 | 1001.9 |
| 20260509010020 | 76 | 292 | 0.0 | 0.0 | 0.01 | 0.29 | 0.03 | 99 | 1001.8 |
| 20260509005520 | 76 | 292 | 0.0 | 0.0 | 0.01 | 0.29 | 0.03 | 99 | 1001.9 |
| 20260509005021 | 76 | 292 | 0.0 | 0.0 | 0.01 | 0.29 | 0.03 | 99 | 1001.9 |
| 20260509004521 | 76 | 302 | 0.0 | 0.0 | 0.01 | 0.29 | 0.03 | 99 | 1001.9 |
| 20260509003521 | 76 | 310 | 0.0 | 0.0 | 0.01 | 0.30 | 0.03 | 99 | 1001.9 |
| 20260509003020 | 76 | 315 | 0.0 | 0.0 | 0.00 | 0.29 | 0.02 | 99 | 1001.9 |
| 20260509002520 | 76 | 299 | 0.0 | 0.0 | 0.00 | 0.29 | 0.02 | 99 | 1001.9 |
| 20260509002020 | 76 | 315 | 0.0 | 0.0 | 0.00 | 0.29 | 0.02 | 99 | 1001.9 |
| 20260509001520 | 76 | 315 | 0.0 | 0.0 | 0.00 | 0.29 | 0.02 | 99 | 1001.8 |
| 20260509000521 | 76 | 305 | 0.0 | 0.0 | 0.00 | 0.29 | 0.02 | 99 | 1001.8 |
| 20260509000020 | 76 | 303 | 0.0 | 0.0 | 0.00 | 0.29 | 0.02 | 99 | 1001.8 |
| 20260508235521 | 76 | 315 | 0.0 | 0.0 | 0.00 | 0.29 | 0.02 | 99 | 1001.8 |
| 20260508235020 | 76 | 292 | 0.0 | 0.0 | 0.00 | 0.29 | 0.02 | 99 | 1001.8 |
| 20260508234520 | 76 | 309 | 0.0 | 0.0 | 0.00 | 0.29 | 0.02 | 99 | 1001.8 |
| 20260508233521 | 76 | 315 | 0.0 | 0.0 | 0.00 | 0.29 | 0.02 | 99 | 1002.0 |
| 20260508233020 | 76 | 292 | 0.0 | 0.0 | 0.00 | 0.29 | 0.02 | 99 | 1002.1 |
| 20260508232521 | 76 | 292 | 0.0 | 0.0 | 0.00 | 0.29 | 0.02 | 99 | 1002.1 |
| 20260508232020 | 76 | 306 | 0.0 | 0.0 | 0.00 | 0.29 | 0.02 | 99 | 1002.1 |
| 20260508231521 | 76 | 304 | 0.0 | 0.0 | 0.00 | 0.29 | 0.02 | 99 | 1001.9 |
| 20260508231020 | 76 | 292 | 0.0 | 0.0 | 0.00 | 0.29 | 0.02 | 99 | 1001.9 |
| 20260508230521 | 76 | 292 | 0.0 | 0.0 | 0.00 | 0.29 | 0.02 | 99 | 1001.8 |
| 20260508225520 | 76 | 292 | 0.0 | 0.0 | 0.00 | 0.29 | 0.02 | 99 | 1001.7 |
| 20260508225020 | 76 | 292 | 0.0 | 0.0 | 0.00 | 0.29 | 0.02 | 99 | 1001.7 |
| 20260508224520 | 76 | 292 | 0.0 | 1.0 | 0.00 | 0.29 | 0.02 | 99 | 1001.7 |
| 20260508224021 | 76 | 292 | 1.0 | 2.0 | 0.00 | 0.29 | 0.02 | 99 | 1001.5 |
| 20260508223521 | 76 | 292 | 0.0 | 0.0 | 0.00 | 0.29 | 0.02 | 99 | 1001.5 |
| 20260508223020 | 76 | 292 | 0.0 | 1.0 | 0.00 | 0.29 | 0.02 | 99 | 1001.6 |
| 20260508222520 | 76 | 292 | 1.0 | 3.0 | 0.00 | 0.29 | 0.02 | 99 | 1001.6 |
| 20260508222020 | 76 | 292 | 0.0 | 0.0 | 0.00 | 0.29 | 0.02 | 99 | 1001.6 |
| 20260508221520 | 76 | 292 | 0.0 | 0.0 | 0.00 | 0.29 | 0.02 | 99 | 1001.6 |
| 20260508221020 | 76 | 297 | 0.0 | 0.0 | 0.00 | 0.29 | 0.02 | 99 | 1001.6 |
| 20260508220020 | 76 | 297 | 0.0 | 3.0 | 0.00 | 0.29 | 0.02 | 99 | 1001.6 |
| 20260508215020 | 76 | 315 | 0.0 | 0.0 | 0.00 | 0.29 | 0.02 | 99 | 1001.6 |
| 20260508214520 | 76 | 315 | 1.0 | 3.0 | 0.00 | 0.29 | 0.02 | 99 | 1001.6 |
| 20260508214020 | 76 | 292 | 1.0 | 2.0 | 0.01 | 0.29 | 0.02 | 99 | 1001.4 |
| 20260508213520 | 76 | 225 | 0.0 | 0.0 | 0.01 | 0.29 | 0.02 | 99 | 1001.4 |
| 20260508213020 | 76 | 225 | 0.0 | 0.0 | 0.01 | 0.29 | 0.02 | 99 | 1001.3 |
| 20260508212520 | 76 | 225 | 0.0 | 0.0 | 0.01 | 0.29 | 0.02 | 99 | 1001.3 |
| 20260508212020 | 76 | 225 | 0.0 | 0.0 | 0.01 | 0.29 | 0.02 | 99 | 1001.2 |
| 20260508211020 | 76 | 194 | 0.0 | 0.0 | 0.01 | 0.29 | 0.02 | 99 | 1001.2 |
| 20260508210520 | 76 | 202 | 0.0 | 0.0 | 0.01 | 0.29 | 0.02 | 99 | 1001.3 |
| 20260508210020 | 76 | 202 | 0.0 | 0.0 | 0.01 | 0.29 | 0.02 | 99 | 1001.3 |
| 20260508205520 | 76 | 202 | 0.0 | 0.0 | 0.01 | 0.29 | 0.02 | 99 | 1001.2 |
| 20260508205020 | 76 | 202 | 0.0 | 0.0 | 0.01 | 0.29 | 0.02 | 99 | 1001.2 |
| 20260508204520 | 76 | 202 | 0.0 | 0.0 | 0.01 | 0.29 | 0.02 | 99 | 1001.2 |
| 20260508204020 | 76 | 202 | 0.0 | 0.0 | 0.01 | 0.28 | 0.01 | 99 | 1001.4 |
| 20260508202520 | 77 | 180 | 0.0 | 0.0 | 0.01 | 0.28 | 0.01 | 99 | 1001.5 |
| 20260508202020 | 77 | 180 | 0.0 | 0.0 | 0.01 | 0.28 | 0.01 | 99 | 1001.5 |
| 20260508201521 | 77 | 180 | 0.0 | 0.0 | 0.01 | 0.28 | 0.01 | 99 | 1001.6 |
| 20260508201020 | 76 | 180 | 0.0 | 0.0 | 0.01 | 0.28 | 0.01 | 99 | 1001.6 |
| 20260508200520 | 76 | 158 | 0.0 | 0.0 | 0.01 | 0.28 | 0.01 | 99 | 1001.7 |
| 20260508195019 | 76 | 158 | 0.0 | 0.0 | 0.01 | 0.28 | 0.01 | 99 | 1001.7 |
| 20260508194520 | 76 | 135 | 0.0 | 0.0 | 0.01 | 0.28 | 0.01 | 99 | 1001.7 |
| 20260508194020 | 76 | 135 | 0.0 | 0.0 | 0.00 | 0.27 | 0.00 | 99 | 1001.8 |
| 20260508193520 | 76 | 135 | 0.0 | 0.0 | 0.00 | 0.27 | 0.00 | 99 | 1001.8 |
| 20260508193020 | 77 | 135 | 0.0 | 0.0 | 0.00 | 0.27 | 0.00 | 99 | 1002.1 |
| 20260508192519 | 77 | 135 | 0.0 | 0.0 | 0.00 | 0.27 | 0.00 | 99 | 1002.1 |
| 20260508192020 | 77 | 135 | 0.0 | 0.0 | 0.00 | 0.27 | 0.00 | 99 | 1002.1 |
| 20260508191520 | 77 | 158 | 0.0 | 0.0 | 0.00 | 0.27 | 0.00 | 99 | 1002.4 |
| 20260508191020 | 77 | 158 | 0.0 | 0.0 | 0.00 | 0.27 | 0.00 | 99 | 1002.4 |
| 20260508190520 | 77 | 158 | 0.0 | 0.0 | 0.00 | 0.27 | 0.00 | 99 | 1002.7 |
| 20260508190019 | 77 | 158 | 0.0 | 0.0 | 0.00 | 0.27 | 0.00 | 99 | 1002.7 |
| 20260508185520 | 77 | 158 | 0.0 | 0.0 | 0.00 | 0.27 | 0.00 | 99 | 1002.9 |
| 20260508185020 | 77 | 158 | 0.0 | 0.0 | 0.00 | 0.27 | 0.00 | 99 | 1002.9 |
| 20260508184519 | 77 | 158 | 0.0 | 0.0 | 0.00 | 0.27 | 0.00 | 99 | 1002.9 |
| 20260508184020 | 77 | 158 | 0.0 | 0.0 | 0.00 | 0.27 | 0.00 | 99 | 1002.8 |
| 20260508183521 | 77 | 158 | 0.0 | 0.0 | 0.00 | 0.27 | 0.00 | 99 | 1002.8 |
| 20260508183020 | 77 | 158 | 0.0 | 0.0 | 0.00 | 0.27 | 0.00 | 99 | 1002.8 |
| 20260508182520 | 77 | 158 | 0.0 | 0.0 | 0.00 | 0.27 | 0.27 | 99 | 1002.8 |
| 20260508182020 | 77 | 158 | 0.0 | 0.0 | 0.00 | 0.27 | 0.27 | 99 | 1002.8 |
| 20260508181520 | 77 | 158 | 0.0 | 0.0 | 0.00 | 0.27 | 0.27 | 99 | 1003.1 |
| 20260508181020 | 77 | 158 | 0.0 | 0.0 | 0.00 | 0.27 | 0.27 | 99 | 1003.1 |
| 20260508180520 | 77 | 135 | 0.0 | 0.0 | 0.00 | 0.27 | 0.27 | 99 | 1003.1 |
| 20260508180020 | 77 | 135 | 0.0 | 0.0 | 0.00 | 0.27 | 0.27 | 99 | 1003.1 |
| 20260508175519 | 77 | 135 | 0.0 | 0.0 | 0.00 | 0.27 | 0.27 | 99 | 1003.4 |
| 20260508174020 | 77 | 90 | 0.0 | 0.0 | 0.00 | 0.27 | 0.27 | 99 | 1004.2 |
| 20260508173519 | 77 | 112 | 0.0 | 1.0 | 0.00 | 0.27 | 0.27 | 99 | 1004.2 |
| 20260508172520 | 76 | 90 | 0.0 | 0.0 | 0.00 | 0.27 | 0.27 | 99 | 1004.0 |
| 20260508172020 | 76 | 90 | 0.0 | 0.0 | 0.00 | 0.27 | 0.27 | 99 | 1004.0 |
| 20260508171519 | 76 | 90 | 0.0 | 0.0 | 0.00 | 0.27 | 0.27 | 99 | 1003.7 |
| 20260508171020 | 76 | 90 | 0.0 | 0.0 | 0.00 | 0.27 | 0.27 | 99 | 1003.7 |
| 20260508170519 | 76 | 90 | 0.0 | 0.0 | 0.00 | 0.27 | 0.27 | 99 | 1003.8 |
| 20260508170020 | 76 | 90 | 0.0 | 0.0 | 0.00 | 0.27 | 0.27 | 99 | 1003.8 |
| 20260508165519 | 77 | 90 | 0.0 | 0.0 | 0.00 | 0.27 | 0.27 | 99 | 1003.8 |
| 20260508165020 | 77 | 108 | 0.0 | 0.0 | 0.00 | 0.27 | 0.27 | 99 | 1003.8 |
| 20260508164520 | 77 | 112 | 0.0 | 0.0 | 0.00 | 0.27 | 0.27 | 99 | 1003.8 |
| 20260508164020 | 77 | 90 | 0.0 | 0.0 | 0.01 | 0.27 | 0.27 | 99 | 1003.7 |
| 20260508163520 | 77 | 90 | 0.0 | 0.0 | 0.01 | 0.27 | 0.27 | 99 | 1003.7 |
| 20260508163020 | 77 | 112 | 0.0 | 0.0 | 0.02 | 0.27 | 0.27 | 99 | 1003.6 |
| 20260508162519 | 77 | 112 | 0.0 | 0.0 | 0.03 | 0.27 | 0.27 | 99 | 1003.6 |
| 20260508162020 | 77 | 90 | 0.0 | 0.0 | 0.03 | 0.27 | 0.27 | 99 | 1003.5 |
| 20260508161519 | 77 | 90 | 0.0 | 0.0 | 0.04 | 0.27 | 0.27 | 99 | 1003.5 |
| 20260508161020 | 76 | 90 | 0.0 | 0.0 | 0.04 | 0.27 | 0.27 | 99 | 1003.5 |
| 20260508160519 | 76 | 90 | 0.0 | 0.0 | 0.04 | 0.27 | 0.27 | 99 | 1003.5 |
| 20260508160020 | 76 | 112 | 0.0 | 0.0 | 0.04 | 0.27 | 0.27 | 99 | 1003.5 |
| 20260508155519 | 77 | 112 | 0.0 | 0.0 | 0.05 | 0.27 | 0.27 | 99 | 1003.4 |
| 20260508155020 | 77 | 112 | 0.0 | 0.0 | 0.05 | 0.27 | 0.27 | 99 | 1003.4 |
| 20260508154519 | 77 | 112 | 0.0 | 0.0 | 0.05 | 0.27 | 0.27 | 99 | 1003.4 |
| 20260508154019 | 77 | 112 | 0.0 | 0.0 | 0.04 | 0.26 | 0.26 | 99 | 1003.2 |
| 20260508153520 | 77 | 112 | 0.0 | 0.0 | 0.05 | 0.26 | 0.26 | 99 | 1003.2 |
| 20260508153020 | 77 | 112 | 0.0 | 0.0 | 0.05 | 0.25 | 0.25 | 99 | 1003.0 |
| 20260508152519 | 77 | 112 | 0.0 | 0.0 | 0.05 | 0.26 | 0.24 | 99 | 1003.0 |
| 20260508151520 | 77 | 112 | 0.0 | 0.0 | 0.09 | 0.43 | 0.23 | 99 | 1002.7 |
| 20260508151021 | 77 | 112 | 0.0 | 0.0 | 0.13 | 0.52 | 0.23 | 99 | 1002.7 |
| 20260508150519 | 77 | 112 | 0.0 | 0.0 | 0.14 | 0.59 | 0.23 | 99 | 1002.7 |
| 20260508150020 | 77 | 112 | 0.0 | 0.0 | 0.14 | 0.59 | 0.23 | 99 | 1002.7 |
| 20260508145519 | 76 | 112 | 0.0 | 0.0 | 0.13 | 0.58 | 0.22 | 99 | 1002.9 |
| 20260508145019 | 76 | 112 | 0.0 | 0.0 | 0.13 | 0.58 | 0.22 | 99 | 1002.9 |
| 20260508144519 | 76 | 112 | 0.0 | 0.0 | 0.13 | 0.58 | 0.22 | 99 | 1002.9 |
| 20260508144019 | 76 | 98 | 0.0 | 1.0 | 0.13 | 0.58 | 0.22 | 99 | 1003.1 |
| 20260508143520 | 77 | 90 | 0.0 | 0.0 | 0.12 | 0.57 | 0.21 | 98 | 1003.1 |
| 20260508143019 | 77 | 90 | 0.0 | 0.0 | 0.11 | 0.56 | 0.20 | 98 | 1002.8 |
| 20260508142519 | 77 | 90 | 2.0 | 5.0 | 0.10 | 0.55 | 0.19 | 97 | 1002.8 |
| 20260508142020 | 78 | 90 | 3.0 | 5.0 | 0.08 | 0.53 | 0.17 | 95 | 1002.7 |
| 20260508141019 | 79 | 65 | 6.0 | 10.0 | 0.01 | 0.46 | 0.10 | 91 | 1002.7 |
| 20260508140520 | 82 | 90 | 7.0 | 10.0 | 0.00 | 0.45 | 0.09 | 84 | 1002.3 |
| 20260508140019 | 83 | 64 | 6.0 | 13.0 | 0.00 | 0.45 | 0.09 | 80 | 1002.3 |
| 20260508135519 | 84 | 45 | 3.0 | 6.0 | 0.00 | 0.45 | 0.09 | 81 | 1001.9 |
| 20260508135019 | 84 | 34 | 3.0 | 9.0 | 0.00 | 0.45 | 0.09 | 83 | 1001.9 |
| 20260508134519 | 84 | 112 | 4.0 | 6.0 | 0.00 | 0.45 | 0.09 | 87 | 1001.9 |
| 20260508133519 | 85 | 180 | 0.0 | 0.0 | 0.00 | 0.45 | 0.09 | 89 | 1001.8 |
| 20260508133020 | 85 | 180 | 0.0 | 0.0 | 0.00 | 0.45 | 0.09 | 89 | 1001.2 |
| 20260508132519 | 85 | 180 | 0.0 | 0.0 | 0.00 | 0.45 | 0.09 | 89 | 1001.2 |
| 20260508132020 | 85 | 180 | 0.0 | 0.0 | 0.00 | 0.45 | 0.09 | 89 | 1001.2 |
| 20260508130519 | 85 | 193 | 1.0 | 2.0 | 0.00 | 0.45 | 0.09 | 88 | 1000.4 |
| 20260508130019 | 85 | 202 | 1.0 | 3.0 | 0.00 | 0.45 | 0.09 | 88 | 1000.4 |
| 20260508125519 | 86 | 184 | 1.0 | 3.0 | 0.00 | 0.45 | 0.09 | 88 | 1000.4 |
| 20260508125019 | 86 | 180 | 2.0 | 6.0 | 0.00 | 0.45 | 0.09 | 87 | 1000.4 |
| 20260508124519 | 86 | 191 | 2.0 | 5.0 | 0.00 | 0.45 | 0.09 | 86 | 1000.4 |
| 20260508124019 | 86 | 202 | 2.0 | 3.0 | 0.00 | 0.45 | 0.09 | 86 | 1000.4 |
| 20260508123520 | 86 | 202 | 3.0 | 7.0 | 0.00 | 0.45 | 0.09 | 86 | 1000.4 |
| 20260508123019 | 86 | 192 | 3.0 | 6.0 | 0.00 | 0.45 | 0.09 | 86 | 1000.1 |
| 20260508122519 | 87 | 180 | 2.0 | 3.0 | 0.00 | 0.45 | 0.09 | 85 | 1000.1 |
| 20260508122019 | 87 | 180 | 2.0 | 3.0 | 0.00 | 0.45 | 0.09 | 84 | 1000.1 |
| 20260508121519 | 87 | 194 | 1.0 | 5.0 | 0.00 | 0.45 | 0.09 | 84 | 1000.1 |
| 20260508120019 | 87 | 202 | 3.0 | 5.0 | 0.00 | 0.45 | 0.09 | 83 | 1000.0 |
| 20260508115518 | 87 | 200 | 3.0 | 6.0 | 0.00 | 0.45 | 0.09 | 83 | 1000.0 |
| 20260508115019 | 88 | 183 | 2.0 | 6.0 | 0.00 | 0.45 | 0.09 | 83 | 1000.0 |
| 20260508114519 | 88 | 180 | 0.0 | 5.0 | 0.00 | 0.45 | 0.09 | 83 | 1000.0 |
| 20260508114019 | 88 | 158 | 2.0 | 5.0 | 0.00 | 0.45 | 0.09 | 84 | 999.9 |
| 20260508113519 | 88 | 165 | 3.0 | 5.0 | 0.00 | 0.45 | 0.09 | 83 | 999.9 |
| 20260508113019 | 88 | 192 | 3.0 | 6.0 | 0.00 | 0.45 | 0.09 | 83 | 999.6 |
| 20260508112518 | 88 | 170 | 2.0 | 3.0 | 0.00 | 0.45 | 0.09 | 83 | 999.6 |
| 20260508112019 | 88 | 158 | 3.0 | 6.0 | 0.00 | 0.45 | 0.09 | 83 | 999.5 |
| 20260508111519 | 88 | 180 | 3.0 | 5.0 | 0.00 | 0.45 | 0.09 | 82 | 999.4 |
| 20260508111019 | 89 | 179 | 2.0 | 5.0 | 0.00 | 0.45 | 0.09 | 82 | 999.4 |
| 20260508110019 | 89 | 175 | 2.0 | 5.0 | 0.00 | 0.45 | 0.09 | 79 | 999.4 |
| 20260508105519 | 90 | 180 | 2.0 | 5.0 | 0.00 | 0.45 | 0.09 | 80 | 999.2 |
| 20260508105019 | 90 | 180 | 5.0 | 6.0 | 0.00 | 0.45 | 0.09 | 78 | 999.2 |
| 20260508104519 | 89 | 180 | 3.0 | 6.0 | 0.00 | 0.45 | 0.09 | 80 | 999.2 |
| 20260508104019 | 89 | 158 | 2.0 | 3.0 | 0.00 | 0.45 | 0.09 | 81 | 999.2 |
| 20260508103519 | 89 | 158 | 2.0 | 5.0 | 0.00 | 0.45 | 0.09 | 81 | 999.2 |
| 20260508102519 | 89 | 158 | 0.0 | 6.0 | 0.00 | 0.45 | 0.09 | 79 | 999.3 |
| 20260508101518 | 89 | 128 | 0.0 | 0.0 | 0.00 | 0.45 | 0.09 | 81 | 999.5 |
| 20260508101022 | 90 | 112 | 0.0 | 0.0 | 0.00 | 0.45 | 0.09 | 82 | 999.5 |
| 20260508100519 | 89 | 112 | 0.0 | 0.0 | 0.00 | 0.45 | 0.09 | 81 | 999.7 |
| 20260508100019 | 89 | 112 | 0.0 | 0.0 | 0.00 | 0.46 | 0.09 | 82 | 999.7 |
| 20260508095528 | 88 | 112 | 0.0 | 3.0 | 0.01 | 0.46 | 0.09 | 85 | 1000.0 |
| 20260508095019 | 88 | 102 | 2.0 | 5.0 | 0.01 | 0.46 | 0.09 | 84 | 1000.1 |
| 20260508094520 | 88 | 54 | 0.0 | 0.0 | 0.02 | 0.46 | 0.09 | 85 | 1000.1 |
| 20260508094019 | 87 | 45 | 0.0 | 0.0 | 0.04 | 0.46 | 0.09 | 90 | 1000.1 |
| 20260508093519 | 87 | 45 | 0.0 | 0.0 | 0.07 | 0.46 | 0.09 | 88 | 1000.1 |
| 20260508093018 | 87 | 45 | 0.0 | 0.0 | 0.08 | 0.46 | 0.09 | 92 | 1000.1 |
| 20260508092019 | 86 | 45 | 0.0 | 0.0 | 0.08 | 0.46 | 0.09 | 92 | 1000.1 |
| 20260508091518 | 85 | 45 | 0.0 | 1.0 | 0.08 | 0.46 | 0.09 | 94 | 1000.2 |
| 20260508091019 | 86 | 45 | 0.0 | 0.0 | 0.08 | 0.46 | 0.09 | 94 | 1000.2 |
| 20260508090518 | 85 | 45 | 0.0 | 0.0 | 0.08 | 0.46 | 0.09 | 93 | 1000.6 |
| 20260508090019 | 85 | 45 | 0.0 | 0.0 | 0.08 | 0.46 | 0.09 | 95 | 1000.6 |
| 20260508085519 | 85 | 64 | 0.0 | 1.0 | 0.07 | 0.45 | 0.08 | 94 | 1000.8 |
| 20260508085019 | 85 | 90 | 0.0 | 0.0 | 0.07 | 0.45 | 0.08 | 90 | 1000.8 |
| 20260508084518 | 85 | 90 | 0.0 | 0.0 | 0.06 | 0.44 | 0.07 | 93 | 1000.8 |
| 20260508084019 | 85 | 90 | 0.0 | 2.0 | 0.04 | 0.42 | 0.05 | 89 | 1001.0 |
| 20260508083518 | 85 | 90 | 2.0 | 3.0 | 0.01 | 0.39 | 0.02 | 87 | 1001.0 |
| 20260508083019 | 85 | 90 | 3.0 | 3.0 | 0.00 | 0.38 | 0.01 | 86 | 1001.0 |
| 20260508082518 | 86 | 90 | 2.0 | 6.0 | 0.00 | 0.38 | 0.01 | 84 | 1001.0 |
| 20260508081519 | 89 | 83 | 5.0 | 9.0 | 0.00 | 0.38 | 0.01 | 76 | 1001.0 |
| 20260508081018 | 92 | 81 | 4.0 | 8.0 | 0.00 | 0.38 | 0.01 | 70 | 1001.0 |
| 20260508080519 | 96 | 94 | 3.0 | 6.0 | 0.00 | 0.38 | 0.01 | 63 | 1001.0 |
| 20260508075518 | 96 | 158 | 1.0 | 5.0 | 0.00 | 0.38 | 0.01 | 63 | 1001.2 |
| 20260508074518 | 98 | 180 | 5.0 | 7.0 | 0.00 | 0.38 | 0.01 | 60 | 1001.2 |
| 20260508074020 | 98 | 202 | 2.0 | 6.0 | 0.00 | 0.38 | 0.01 | 59 | 1001.4 |
| 20260508073519 | 99 | 188 | 2.0 | 3.0 | 0.00 | 0.38 | 0.01 | 59 | 1001.4 |
| 20260508073019 | 97 | 181 | 2.0 | 5.0 | 0.00 | 0.38 | 0.01 | 61 | 1001.5 |
| 20260508072519 | 96 | 190 | 3.0 | 5.0 | 0.00 | 0.38 | 0.01 | 63 | 1001.5 |
| 20260508072018 | 96 | 202 | 2.0 | 5.0 | 0.00 | 0.38 | 0.01 | 63 | 1001.5 |
| 20260508071518 | 95 | 196 | 5.0 | 7.0 | 0.00 | 0.38 | 0.01 | 64 | 1001.5 |
| 20260508071019 | 94 | 202 | 4.0 | 7.0 | 0.00 | 0.38 | 0.01 | 67 | 1001.5 |
| 20260508070018 | 94 | 193 | 3.0 | 6.0 | 0.00 | 0.38 | 0.01 | 67 | 1001.6 |
| 20260508065518 | 94 | 180 | 3.0 | 6.0 | 0.00 | 0.38 | 0.01 | 66 | 1001.8 |
| 20260508065020 | 94 | 202 | 1.0 | 6.0 | 0.00 | 0.38 | 0.01 | 68 | 1001.8 |
| 20260508064518 | 92 | 180 | 3.0 | 6.0 | 0.00 | 0.38 | 0.01 | 68 | 1001.8 |
| 20260508064018 | 93 | 202 | 4.0 | 9.0 | 0.00 | 0.38 | 0.01 | 67 | 1001.8 |
| 20260508063018 | 94 | 186 | 5.0 | 8.0 | 0.00 | 0.38 | 0.01 | 65 | 1002.0 |
| 20260508062018 | 99 | 202 | 3.0 | 7.0 | 0.00 | 0.38 | 0.01 | 60 | 1002.0 |
| 20260508061519 | 98 | 202 | 3.0 | 8.0 | 0.00 | 0.38 | 0.01 | 60 | 1002.0 |
| 20260508061018 | 100 | 202 | 3.0 | 6.0 | 0.00 | 0.38 | 0.01 | 60 | 1002.0 |
| 20260508060519 | 100 | 202 | 3.0 | 6.0 | 0.00 | 0.38 | 0.01 | 58 | 1002.2 |
| 20260508060019 | 98 | 191 | 5.0 | 8.0 | 0.00 | 0.38 | 0.01 | 59 | 1002.2 |
| 20260508055518 | 99 | 270 | 3.0 | 6.0 | 0.00 | 0.38 | 0.01 | 60 | 1002.3 |
| 20260508055018 | 100 | 272 | 3.0 | 5.0 | 0.00 | 0.38 | 0.01 | 58 | 1002.3 |
| 20260508054518 | 101 | 202 | 3.0 | 5.0 | 0.00 | 0.38 | 0.01 | 56 | 1002.3 |
| 20260508054019 | 99 | 198 | 4.0 | 6.0 | 0.00 | 0.38 | 0.01 | 58 | 1002.3 |
| 20260508053520 | 99 | 202 | 3.0 | 5.0 | 0.00 | 0.38 | 0.01 | 58 | 1002.3 |
| 20260508053019 | 98 | 180 | 4.0 | 7.0 | 0.00 | 0.38 | 0.01 | 58 | 1002.5 |
| 20260508052519 | 100 | 158 | 3.0 | 6.0 | 0.00 | 0.38 | 0.01 | 57 | 1002.5 |
| 20260508052018 | 100 | 225 | 3.0 | 5.0 | 0.00 | 0.38 | 0.01 | 57 | 1002.5 |
| 20260508051519 | 100 | 202 | 3.0 | 6.0 | 0.00 | 0.38 | 0.01 | 56 | 1002.5 |
| 20260508051019 | 100 | 202 | 2.0 | 6.0 | 0.00 | 0.38 | 0.01 | 58 | 1002.5 |
| 20260508050019 | 99 | 197 | 2.0 | 3.0 | 0.00 | 0.38 | 0.01 | 60 | 1002.5 |
| 20260508045519 | 96 | 180 | 2.0 | 5.0 | 0.00 | 0.38 | 0.01 | 62 | 1002.6 |